• In Uzbekistan
  • List of Countries
  • For 7 days
  • Water Temperature
  • Satellite Maps
  • Weather Map
  • Weather Widgets
  • user-avatar
    Login

    Hourly Weather Toronto

    Today, 15 October, Monday

    Time Temperature Precipitation Wind Pressure Humidity
    00:00 +8°C° 0 mm 2 mps 751 mmHg 80%
    01:00 +8°C° 0 mm 2 mps 750 mmHg 79%
    02:00 +9°C° 0 mm 2 mps 749 mmHg 79%
    03:00 +9°C° 0 mm 2 mps 749 mmHg 80%
    04:00 +10°C° 0 mm 2 mps 748 mmHg 81%
    05:00 +10°C° 0.3 mm 2 mps 748 mmHg 85%
    06:00 +10°C° 0.3 mm 3 mps 747 mmHg 89%
    07:00 +10°C° 0 mm 3 mps 746 mmHg 91%
    08:00 +11°C° 0.7 mm 4 mps 746 mmHg 92%
    09:00 +10°C° 0.7 mm 5 mps 745 mmHg 93%
    10:00 +11°C° 0.7 mm 6 mps 745 mmHg 94%
    11:00 +11°C° 0.2 mm 7 mps 745 mmHg 90%
    12:00 +11°C° 0.2 mm 8 mps 745 mmHg 86%
    13:00 +11°C° 0.2 mm 9 mps 745 mmHg 82%
    14:00 +9°C° 0.1 mm 10 mps 745 mmHg 80%
    15:00 +8°C° 0.1 mm 10 mps 746 mmHg 78%
    16:00 +7°C° 0.1 mm 10 mps 746 mmHg 76%
    17:00 +6°C° 0.1 mm 10 mps 747 mmHg 74%
    18:00 +5°C° 0.1 mm 10 mps 748 mmHg 72%
    19:00 +3°C° 0.1 mm 11 mps 749 mmHg 70%
    20:00 +2°C° 0 mm 10 mps 749 mmHg 69%
    21:00 +1°C° 0 mm 9 mps 750 mmHg 68%
    22:00 0°C° 0 mm 9 mps 751 mmHg 66%
    23:00 0°C° 0 mm 8 mps 751 mmHg 69%

    Tomorrow, 16 October, Tuesday

    Time Temperature Precipitation Wind Pressure Humidity
    00:00 0°C° 0 mm 8 mps 751 mmHg 71%
    01:00 0°C° 0 mm 8 mps 752 mmHg 73%
    02:00 0°C° 0 mm 7 mps 752 mmHg 75%
    03:00 0°C° 0 mm 7 mps 752 mmHg 76%
    04:00 0°C° 0 mm 7 mps 752 mmHg 78%
    05:00 0°C° 0 mm 7 mps 752 mmHg 78%
    06:00 +1°C° 0 mm 6 mps 752 mmHg 78%
    07:00 -1°C° 0 mm 6 mps 752 mmHg 78%
    08:00 +2°C° 0 mm 7 mps 752 mmHg 72%
    09:00 +2°C° 0 mm 8 mps 751 mmHg 66%
    10:00 +5°C° 0 mm 8 mps 751 mmHg 60%
    11:00 +6°C° 0 mm 8 mps 751 mmHg 57%
    12:00 +7°C° 0 mm 9 mps 750 mmHg 54%
    13:00 +8°C° 0 mm 9 mps 749 mmHg 50%
    14:00 +8°C° 0 mm 9 mps 749 mmHg 50%
    15:00 +8°C° 0 mm 9 mps 748 mmHg 49%
    16:00 +8°C° 0 mm 9 mps 747 mmHg 48%
    17:00 +7°C° 0 mm 9 mps 747 mmHg 52%
    18:00 +6°C° 0 mm 8 mps 747 mmHg 55%
    19:00 +5°C° 0 mm 8 mps 747 mmHg 58%
    20:00 +5°C° 0 mm 8 mps 747 mmHg 61%
    21:00 +5°C° 0 mm 8 mps 747 mmHg 65%
    22:00 +5°C° 0 mm 9 mps 746 mmHg 68%
    23:00 +5°C° 0 mm 8 mps 746 mmHg 72%

    Day after tomorrow, 17 October, Wednesday

    Time Temperature Precipitation Wind Pressure Humidity
    00:00 +5°C° 0 mm 8 mps 746 mmHg 75%
    01:00 +5°C° 0 mm 7 mps 746 mmHg 79%
    02:00 +5°C° 0.1 mm 7 mps 746 mmHg 79%
    03:00 +4°C° 0.1 mm 8 mps 746 mmHg 79%
    04:00 +4°C° 0.1 mm 8 mps 745 mmHg 79%
    05:00 +4°C° 0.1 mm 8 mps 746 mmHg 78%
    06:00 +2°C° 0.1 mm 8 mps 746 mmHg 78%
    07:00 +1°C° 0.1 mm 8 mps 746 mmHg 77%
    08:00 +2°C° 0.1 mm 9 mps 747 mmHg 71%
    09:00 +3°C° 0.1 mm 9 mps 748 mmHg 65%
    10:00 +5°C° 0.1 mm 10 mps 748 mmHg 60%
    11:00 +5°C° 0.2 mm 10 mps 748 mmHg 61%
    12:00 +5°C° 0.2 mm 10 mps 749 mmHg 62%
    13:00 +3°C° 0.2 mm 10 mps 749 mmHg 63%
    14:00 +3°C° 0.4 mm 10 mps 749 mmHg 65%
    15:00 +2°C° 0.4 mm 10 mps 750 mmHg 67%
    16:00 +2°C° 0.4 mm 10 mps 750 mmHg 69%
    17:00 +1°C° 0.2 mm 10 mps 751 mmHg 70%
    18:00 0°C° 0.2 mm 9 mps 752 mmHg 71%
    19:00 -1°C° 0.2 mm 8 mps 753 mmHg 72%
    20:00 -1°C° 0.1 mm 8 mps 754 mmHg 73%
    21:00 -1°C° 0.1 mm 8 mps 754 mmHg 75%
    22:00 -2°C° 0.1 mm 7 mps 755 mmHg 76%
    23:00 -2°C° 0.1 mm 7 mps 755 mmHg 76%

    18 October, Thursday

    Time Temperature Precipitation Wind Pressure Humidity
    00:00 -2°C° 0.1 mm 7 mps 756 mmHg 77%
    01:00 -2°C° 0.1 mm 7 mps 756 mmHg 78%
    02:00 -2°C° 0 mm 7 mps 756 mmHg 78%
    03:00 -3°C° 0 mm 7 mps 756 mmHg 79%
    04:00 -3°C° 0 mm 7 mps 757 mmHg 79%
    05:00 -3°C° 0 mm 7 mps 757 mmHg 79%
    06:00 -3°C° 0 mm 7 mps 758 mmHg 78%
    07:00 -3°C° 0 mm 7 mps 758 mmHg 78%
    08:00 -2°C° 0 mm 7 mps 759 mmHg 73%
    09:00 -1°C° 0 mm 7 mps 759 mmHg 69%
    10:00 0°C° 0 mm 7 mps 760 mmHg 64%
    11:00 +2°C° 0 mm 6 mps 760 mmHg 62%
    12:00 +3°C° 0 mm 6 mps 760 mmHg 61%
    13:00 +4°C° 0 mm 6 mps 759 mmHg 59%
    14:00 +4°C° 0 mm 6 mps 759 mmHg 61%
    15:00 +4°C° 0 mm 6 mps 759 mmHg 62%
    16:00 +4°C° 0 mm 6 mps 759 mmHg 64%
    17:00 +3°C° 0 mm 5 mps 758 mmHg 68%
    18:00 +2°C° 0 mm 5 mps 758 mmHg 73%
    19:00 +1°C° 0 mm 4 mps 758 mmHg 77%
    20:00 +1°C° 0 mm 5 mps 758 mmHg 75%
    21:00 +1°C° 0 mm 5 mps 758 mmHg 73%
    22:00 +1°C° 0 mm 6 mps 757 mmHg 71%
    23:00 +2°C° 0 mm 6 mps 757 mmHg 71%

    19 October, Friday

    Time Temperature Precipitation Wind Pressure Humidity
    00:00 +2°C° 0 mm 6 mps 757 mmHg 71%
    01:00 +2°C° 0 mm 7 mps 756 mmHg 71%
    02:00 +3°C° 0 mm 7 mps 756 mmHg 74%
    03:00 +3°C° 0 mm 7 mps 756 mmHg 76%
    04:00 +3°C° 0 mm 7 mps 755 mmHg 79%
    05:00 +3°C° 0 mm 7 mps 755 mmHg 77%
    06:00 +3°C° 0 mm 7 mps 755 mmHg 76%
    07:00 +3°C° 0 mm 7 mps 755 mmHg 74%
    08:00 +5°C° 0 mm 8 mps 754 mmHg 68%
    09:00 +7°C° 0 mm 8 mps 754 mmHg 62%
    10:00 +10°C° 0 mm 8 mps 754 mmHg 56%
    11:00 +11°C° 0 mm 8 mps 753 mmHg 53%
    12:00 +12°C° 0 mm 8 mps 752 mmHg 51%
    13:00 +13°C° 0 mm 9 mps 751 mmHg 48%
    14:00 +12°C° 0 mm 8 mps 750 mmHg 52%
    15:00 +11°C° 0 mm 8 mps 750 mmHg 56%
    16:00 +11°C° 0 mm 8 mps 749 mmHg 61%
    17:00 +10°C° 0.1 mm 8 mps 749 mmHg 64%
    18:00 +9°C° 0.1 mm 8 mps 748 mmHg 67%
    19:00 +7°C° 0.1 mm 8 mps 748 mmHg 70%
    20:00 +7°C° 0.1 mm 8 mps 747 mmHg 71%
    21:00 +9°C° 0.1 mm 8 mps 747 mmHg 71%
    22:00 +9°C° 0.1 mm 8 mps 746 mmHg 72%
    23:00 +7°C° 0 mm 8 mps 745 mmHg 70%

    20 October, Saturday

    Time Temperature Precipitation Wind Pressure Humidity
    00:00 +7°C° 0 mm 8 mps 744 mmHg 69%
    01:00 +7°C° 0 mm 9 mps 743 mmHg 68%
    02:00 +7°C° 0.2 mm 9 mps 743 mmHg 72%
    03:00 +7°C° 0.2 mm 9 mps 742 mmHg 76%
    04:00 +7°C° 0.2 mm 9 mps 742 mmHg 80%
    05:00 +7°C° 0.2 mm 8 mps 742 mmHg 81%
    06:00 +7°C° 0.2 mm 8 mps 742 mmHg 82%
    07:00 +6°C° 0.2 mm 8 mps 742 mmHg 83%
    08:00 +7°C° 0.1 mm 8 mps 742 mmHg 77%
    09:00 +7°C° 0.1 mm 8 mps 743 mmHg 70%
    10:00 +8°C° 0.1 mm 9 mps 743 mmHg 64%
    11:00 +8°C° 0 mm 9 mps 743 mmHg 60%
    12:00 +8°C° 0 mm 9 mps 744 mmHg 57%
    13:00 +8°C° 0 mm 9 mps 744 mmHg 53%
    14:00 +7°C° 0 mm 9 mps 744 mmHg 53%
    15:00 +7°C° 0 mm 8 mps 744 mmHg 52%
    16:00 +6°C° 0 mm 8 mps 744 mmHg 52%
    17:00 +5°C° 0 mm 7 mps 744 mmHg 56%
    18:00 +4°C° 0 mm 7 mps 745 mmHg 60%
    19:00 +2°C° 0 mm 6 mps 745 mmHg 64%
    20:00 +2°C° 0 mm 6 mps 745 mmHg 66%
    21:00 +2°C° 0 mm 6 mps 745 mmHg 68%
    22:00 +1°C° 0 mm 5 mps 746 mmHg 70%
    23:00 +1°C° 0 mm 5 mps 746 mmHg 71%
    Show more